Weather History for Tuscaloosa, AL

Change the Weather History Date:

Friday, December 20, 2013

  Actual Average Record
Temperature  
Mean Temperature 61 °F 46 °F  
Max Temperature 71 °F 57 °F 76 °F (1978)
Min Temperature 51 °F 36 °F 11 °F (1981)
Degree Days  
Heating Degree Days 4 19  
Month to date heating degree days 332 345  
Since 1 July heating degree days 799 782  
Growing Degree Days 12 (Base 50)    
Moisture  
Dew Point 53 °F    
Average Humidity 71    
Maximum Humidity 81    
Minimum Humidity 61    
Precipitation  
Precipitation T in 0.13 in 3.64 in (1951)
Month to date precipitation 4.00 3.16  
Year to date precipitation 47.83 51.14  
Sea Level Pressure  
Sea Level Pressure 30.07 in    
Wind  
Wind Speed 8 mph (SE)    
Max Wind Speed 16 mph    
Max Gust Speed 20 mph    
Visibility 10 miles    
Events      
T = Trace of Precipitation, MM = Missing Value Source: NWS Daily Summary

Daily Weather History Graph

Daily Weather History Graph

Search for Another Location

Airport:

Trip Planner

Search our weather history database for the weather conditions in past years. The results will help you decide how hot, cold, wet, or windy it might be!

Date:

Astronomy

Dec. 20, 2013 Rise Set
Actual Time 6:49 AM CST 4:46 PM CST
Civil Twilight 6:22 AM CST 5:14 PM CST
Nautical Twilight 5:51 AM CST 5:45 PM CST
Astronomical Twilight 5:20 AM CST 6:15 PM CST
Moon 7:58 PM CST (12/20) 8:51 AM CST (12/20)
Length of Visible Light 10h 52m
Length of Day
9h 57m
Waning Gibbous, 90% of the Moon is Illuminated
Dec 20
Waning Gibbous
Dec 25
Last Quarter
Jan 1
New
Jan 7
First Quarter
Jan 15
Full

Hourly Weather History & Observations

Time (CST) Temp. Dew Point Humidity Pressure Visibility Wind Dir Wind Speed Gust Speed Precip Events Conditions
12:53 AM 55.9 °F 44.1 °F 64% 30.11 in 10.0 mi ESE 4.6 mph - N/A   Overcast
1:53 AM 55.9 °F 45.0 °F 67% 30.11 in 10.0 mi SE 8.1 mph - N/A   Overcast
2:53 AM 55.9 °F 44.1 °F 64% 30.11 in 10.0 mi Variable 6.9 mph - N/A   Overcast
3:16 AM 55.4 °F 44.6 °F 67% 30.11 in 10.0 mi ESE 4.6 mph - N/A   Overcast
3:50 AM 55.4 °F 42.8 °F 63% 30.11 in 10.0 mi ESE 4.6 mph - N/A   Overcast
3:53 AM 55.9 °F 43.0 °F 62% 30.10 in 10.0 mi ESE 3.5 mph - N/A   Overcast
4:02 AM 55.4 °F 42.8 °F 63% 30.10 in 10.0 mi ESE 4.6 mph - N/A   Overcast
4:53 AM 55.9 °F 43.0 °F 62% 30.11 in 10.0 mi East 4.6 mph - N/A   Overcast
5:53 AM 55.9 °F 43.0 °F 62% 30.12 in 10.0 mi Variable 3.5 mph - N/A   Overcast
6:14 AM 55.4 °F 44.6 °F 67% 30.12 in 10.0 mi East 3.5 mph - N/A   Overcast
6:53 AM 55.9 °F 44.1 °F 64% 30.12 in 10.0 mi East 3.5 mph - N/A   Overcast
7:53 AM 57.0 °F 46.9 °F 69% 30.12 in 10.0 mi ESE 4.6 mph - N/A   Mostly Cloudy
8:43 AM 60.8 °F 50.0 °F 68% 30.14 in 10.0 mi ESE 8.1 mph - N/A   Overcast
8:53 AM 61.0 °F 51.1 °F 70% 30.13 in 10.0 mi SE 5.8 mph - N/A   Overcast
9:53 AM 64.0 °F 54.0 °F 70% 30.13 in 10.0 mi SE 10.4 mph - N/A   Overcast
10:41 AM 64.4 °F 55.4 °F 73% 30.12 in 10.0 mi SSE 6.9 mph - N/A   Overcast
10:53 AM 63.0 °F 55.0 °F 75% 30.12 in 10.0 mi South 9.2 mph 17.3 mph N/A   Overcast
11:53 AM 66.9 °F 55.9 °F 68% 30.09 in 10.0 mi South 9.2 mph - N/A   Overcast
12:53 PM 68.0 °F 57.0 °F 68% 30.05 in 10.0 mi South 12.7 mph - N/A   Overcast
1:53 PM 70.0 °F 57.9 °F 65% 30.03 in 10.0 mi South 11.5 mph - N/A   Scattered Clouds
2:53 PM 70.0 °F 59.0 °F 68% 30.01 in 10.0 mi South 15.0 mph 19.6 mph N/A   Partly Cloudy
3:53 PM 69.1 °F 59.0 °F 70% 30.03 in 10.0 mi Variable 4.6 mph - N/A   Overcast
4:53 PM 69.1 °F 59.0 °F 70% 30.04 in 10.0 mi SSE 4.6 mph - N/A   Overcast
5:53 PM 68.0 °F 59.0 °F 73% 30.03 in 10.0 mi SE 8.1 mph - 0.00 in   Mostly Cloudy
6:46 PM 66.2 °F 59.0 °F 78% 30.03 in 10.0 mi SSE 5.8 mph - N/A   Mostly Cloudy
6:53 PM 68.0 °F 60.1 °F 76% 30.03 in 10.0 mi SSE 4.6 mph - N/A   Mostly Cloudy
7:53 PM 66.9 °F 60.1 °F 79% 30.04 in 10.0 mi South 10.4 mph - N/A   Mostly Cloudy
8:02 PM 68.0 °F 60.8 °F 78% 30.04 in 10.0 mi South 9.2 mph 16.1 mph N/A   Scattered Clouds
8:53 PM 68.0 °F 61.0 °F 78% 30.03 in 10.0 mi South 12.7 mph 19.6 mph N/A   Mostly Cloudy
9:33 PM 66.2 °F 60.8 °F 83% 30.03 in 10.0 mi South 10.4 mph - N/A   Mostly Cloudy
9:53 PM 66.9 °F 61.0 °F 81% 30.02 in 10.0 mi SSE 5.8 mph - N/A   Mostly Cloudy
10:21 PM 66.2 °F 60.8 °F 83% 30.02 in 10.0 mi South 10.4 mph - N/A   Scattered Clouds
10:53 PM 66.0 °F 61.0 °F 84% 30.01 in 10.0 mi South 10.4 mph - N/A   Partly Cloudy
11:53 PM 64.9 °F 61.0 °F 87% 29.99 in 10.0 mi South 8.1 mph - N/A   Partly Cloudy